FW7261 Weather Reports


Display with metric or nautical units.
time (UTC)temp
F
wind
direction
speed
MPH
gust
MPH
rain 1hr
in
rain 24hr
in
rain mn
in
humidity
%
barometer
mb
20260902091110 71 265 0.0 1.0 0.00 0.00 0.00 67 1021.9
20260902085110 69 262 1.0 5.0 0.00 0.00 0.00 71 1022.0
20260902084110 68 259 0.0 1.0 0.00 0.00 0.00 72 1021.9
20260902081114 63 273 0.0 0.0 0.00 0.00 0.00 80 1021.8
20260902080114 63 273 0.0 0.0 0.00 0.00 0.00 81 1021.8
20260902075114 63 273 0.0 0.0 0.00 0.00 0.00 81 1021.5
20260902074114 62 288 0.0 0.0 0.00 0.00 0.00 82 1021.6
20260902073114 62 288 0.0 0.0 0.00 0.00 0.00 81 1021.4
20260902072114 62 275 0.0 2.0 0.00 0.00 0.00 81 1021.3
20260902071113 61 78 0.0 1.0 0.00 0.00 0.00 83 1021.4
20260902070113 61 77 0.0 0.0 0.00 0.00 0.00 84 1021.2
20260902065113 60 77 0.0 1.0 0.00 0.00 0.00 84 1021.2
20260902064113 60 78 0.0 0.0 0.00 0.00 0.00 85 1021.2
20260902063113 58 78 0.0 0.0 0.00 0.00 0.00 87 1021.4
20260902062113 58 78 0.0 0.0 0.00 0.00 0.00 87 1021.3
20260902060113 58 78 0.0 0.0 0.00 0.00 0.00 85 1021.3
20260902055113 58 78 0.0 0.0 0.00 0.00 0.00 85 1021.3
20260902054113 57 78 0.0 0.0 0.00 0.00 0.00 87 1021.4
20260902053112 56 78 0.0 0.0 0.00 0.00 0.00 88 1021.4
20260902052113 55 78 0.0 0.0 0.00 0.00 0.00 89 1021.3
20260902051113 55 78 0.0 0.0 0.00 0.00 0.00 89 1021.2
20260902050112 54 78 0.0 0.0 0.00 0.00 0.00 89 1021.2
20260902045112 54 78 0.0 0.0 0.00 0.00 0.00 89 1021.1
20260902044112 54 78 0.0 0.0 0.00 0.00 0.00 89 1021.1
20260902043112 54 78 0.0 0.0 0.00 0.00 0.00 89 1021.1
20260902042112 54 78 0.0 0.0 0.00 0.00 0.00 88 1021.0
20260902041112 55 78 0.0 0.0 0.00 0.00 0.00 88 1021.0
20260902040112 55 78 0.0 0.0 0.00 0.00 0.00 88 1021.0
20260902035112 55 78 0.0 0.0 0.00 0.00 0.00 88 1021.0
20260902034112 55 78 0.0 0.0 0.00 0.00 0.00 88 1020.8
20260902033112 55 78 0.0 1.0 0.00 0.00 0.00 88 1020.8
20260902032111 55 78 0.0 1.0 0.00 0.00 0.00 88 1021.0
20260902031111 55 78 0.0 1.0 0.00 0.00 0.00 89 1021.0
20260902030111 55 78 0.0 1.0 0.00 0.00 0.00 88 1021.2
20260902025111 55 78 0.0 1.0 0.00 0.00 0.00 88 1021.2
20260902024111 55 78 0.0 0.0 0.00 0.00 0.00 87 1021.2
20260902023111 56 78 0.0 0.0 0.00 0.00 0.00 87 1021.2
20260902022111 56 78 0.0 0.0 0.00 0.00 0.00 87 1021.2
20260902013110 57 78 0.0 0.0 0.00 0.00 0.00 86 1020.9
20260902005110 58 79 0.0 1.0 0.00 0.00 0.00 86 1021.1
20260902004110 57 79 0.0 0.0 0.00 0.00 0.00 85 1021.1
20260902002110 58 79 0.0 1.0 0.00 0.00 0.00 86 1021.1
20260902001110 58 74 0.0 1.0 0.00 0.00 0.00 86 1021.2
20260901235111 70 248 6.0 13.0 0.00 0.07 0.00 70 1017.8
20260901231110 70 248 6.0 13.0 0.00 0.07 0.00 70 1017.8
20260901230110 70 248 6.0 13.0 0.00 0.07 0.00 70 1017.8
20260901225110 70 248 6.0 13.0 0.00 0.07 0.00 70 1017.8
20260901223110 70 248 0.0 13.0 0.00 0.07 0.00 70 1017.8
20260901222115 70 248 6.0 13.0 0.00 0.07 0.00 70 1017.8
20260901221114 70 248 6.0 13.0 0.00 0.07 0.00 70 1017.8
20260901220114 70 248 6.0 13.0 0.00 0.07 0.00 70 1017.8
20260901214114 70 248 6.0 13.0 0.00 0.07 0.00 70 1017.8
20260901213114 70 248 6.0 13.0 0.00 0.07 0.00 70 1017.8
20260901212114 70 248 6.0 13.0 0.00 0.07 0.00 70 1017.8
20260901211114 70 248 6.0 13.0 0.00 0.07 0.00 70 1017.8
20260901210114 70 248 6.0 13.0 0.00 0.07 0.00 70 1017.8
20260901205114 70 248 6.0 13.0 0.00 0.07 0.00 70 1017.8
20260901204114 70 248 6.0 13.0 0.00 0.07 0.00 70 1017.8
20260901203114 70 248 6.0 13.0 0.00 0.07 0.00 70 1017.8
20260901202114 70 248 6.0 13.0 0.00 0.07 0.00 70 1017.8
20260901201114 70 248 6.0 13.0 0.00 0.07 0.00 70 1017.8
20260901200114 70 248 6.0 13.0 0.00 0.07 0.00 70 1017.8
20260901195113 70 248 6.0 13.0 0.00 0.07 0.00 70 1017.8
20260901193113 70 248 6.0 13.0 0.00 0.07 0.00 70 1017.8
20260901192113 70 248 6.0 13.0 0.00 0.07 0.00 70 1017.8
20260901191113 70 248 6.0 13.0 0.00 0.07 0.00 70 1017.8
20260901185113 70 248 6.0 13.0 0.00 0.07 0.00 70 1017.8
20260901183113 70 248 6.0 13.0 0.00 0.07 0.00 70 1017.8
20260901181112 70 248 6.0 13.0 0.00 0.07 0.00 70 1017.8
20260901175112 70 248 6.0 13.0 0.00 0.07 0.00 70 1017.8
20260901174112 70 248 6.0 13.0 0.00 0.07 0.00 70 1017.8
20260901173112 70 248 6.0 13.0 0.00 0.07 0.00 70 1017.8
20260901172112 70 248 0.0 13.0 0.00 0.07 0.00 70 1017.8
20260901171112 70 248 6.0 13.0 0.00 0.07 0.00 70 1017.8
20260901170112 70 248 6.0 13.0 0.00 0.07 0.00 70 1017.8
20260901165112 70 248 6.0 13.0 0.00 0.07 0.00 70 1017.8
20260901164112 70 248 6.0 13.0 0.00 0.07 0.00 70 1017.8
20260901163112 70 248 6.0 13.0 0.00 0.07 0.00 70 1017.8
20260901162112 70 248 6.0 13.0 0.00 0.07 0.00 70 1017.8
20260901161112 70 248 6.0 13.0 0.00 0.07 0.00 70 1017.8
20260901160112 70 248 6.0 13.0 0.00 0.07 0.00 70 1017.8
20260901155112 70 248 6.0 13.0 0.00 0.07 0.00 70 1017.8
20260901154111 70 248 6.0 13.0 0.00 0.07 0.00 70 1017.8
20260901153111 70 248 6.0 13.0 0.00 0.07 0.00 70 1017.8
20260901152111 70 248 6.0 13.0 0.00 0.07 0.00 70 1017.8
20260901151112 70 248 6.0 13.0 0.00 0.07 0.00 70 1017.8
20260901150111 70 248 6.0 13.0 0.00 0.07 0.00 70 1017.8
20260901145111 70 248 6.0 13.0 0.00 0.07 0.00 70 1017.8
20260901144111 70 248 6.0 13.0 0.00 0.07 0.00 70 1017.8
20260901143111 70 248 6.0 13.0 0.00 0.07 0.00 70 1017.8
20260901141111 70 248 6.0 13.0 0.00 0.07 0.00 70 1017.8
20260901140110 70 248 6.0 13.0 0.00 0.07 0.00 70 1017.8
20260901135110 70 248 6.0 13.0 0.00 0.07 0.00 70 1017.8
20260901134110 70 248 6.0 13.0 0.00 0.07 0.00 70 1017.8
20260901132111 70 248 6.0 13.0 0.00 0.07 0.00 70 1017.8
20260901130111 70 248 6.0 13.0 0.00 0.07 0.00 70 1017.8
20260901125110 70 248 6.0 13.0 0.00 0.07 0.00 70 1017.8
20260901124110 70 248 6.0 13.0 0.00 0.07 0.00 70 1017.8
20260901123110 70 248 6.0 13.0 0.00 0.07 0.00 70 1017.8
20260901122110 70 248 6.0 13.0 0.00 0.07 0.00 70 1017.8
20260901120114 70 248 6.0 13.0 0.00 0.07 0.00 70 1017.8
20260901115115 70 248 6.0 13.0 0.00 0.07 0.00 70 1017.8
20260901114114 70 248 6.0 13.0 0.00 0.07 0.00 70 1017.8
20260901113114 70 248 6.0 13.0 0.00 0.07 0.00 70 1017.8
20260901112114 70 248 6.0 13.0 0.00 0.07 0.00 70 1017.8
20260901111114 70 248 6.0 13.0 0.00 0.07 0.00 70 1017.8
20260901110114 70 248 6.0 13.0 0.00 0.07 0.00 70 1017.8
20260901105114 70 248 6.0 13.0 0.00 0.07 0.00 70 1017.8
20260901104114 70 248 6.0 13.0 0.00 0.07 0.00 70 1017.8
20260901103114 70 248 6.0 13.0 0.00 0.07 0.00 70 1017.8
20260901102113 70 248 6.0 13.0 0.00 0.07 0.00 70 1017.8
20260901101113 70 248 6.0 13.0 0.00 0.07 0.00 70 1017.8
20260901100114 70 248 6.0 13.0 0.00 0.07 0.00 70 1017.8
20260901095113 70 248 6.0 13.0 0.00 0.07 0.00 70 1017.8
20260901094113 70 248 6.0 13.0 0.00 0.07 0.00 70 1017.8
20260901093113 70 248 6.0 13.0 0.00 0.07 0.00 70 1017.8